Regional Weather Roundup
Issued by NWS

Home | Current Version | Previous Version | Text Only | Print | Product List | Glossary On
Versions: 1 2 3 4 5 6 7 8 9 10 11 12 13 14 15 16 17 18 19 20 21 22 23 24 25 26 27 28 29 30 31 32 33 34 35 36 37 38 39 40 41 42 43 44 45 46 47 48 49 50
000
ASUS44 KJAN 211310
RWRMS

MISSISSIPPI HOURLY WEATHER ROUNDUP
NATIONAL WEATHER SERVICE JACKSON MS
700 AM CST TUE FEB 21 2017

NOTE: "FAIR: INDICATES FEW OR NO CLOUDS BELOW 12,000 FEET WITH NO
SIGNIFICANT WEATHER AND/OR OBSTRUCTIONS TO VISIBILITY.

MSZ001>002-007>008-010>013-018>021-025>028-034>036-211400-
NORTHWEST MISSISSIPPI

CITY           SKY/WX    TMP DP  RH WIND       PRES   REMARKS
BATESVILLE     LGT RAIN  59  57  95 S7        29.87R
CLEVELAND      DRIZZLE   59  59 100 SW8       29.89S
GREENWOOD      CLOUDY    60  57  89 W6        29.87R
GREENVILLE     CLOUDY    58  57  97 SW9       29.89F FOG
OLIVE BRANCH   CLOUDY   N/A N/A N/A SE10      29.81
OXFORD         MOCLDY    55  55 100 SE10G20   29.87S
TUNICA         CLOUDY    57  55  94 S15       29.87R
WINONA         LGT RAIN  58  58 100 SW5       29.87R
$$

MSZ003>006-009-014>017-022>024-029>033-037>039-211400-
NORTHEAST MISSISSIPPI

CITY           SKY/WX    TMP DP  RH WIND       PRES   REMARKS
COLUMBUS AFB   MOCLDY    58  57  96 SE9       29.92R
TUPELO         CLOUDY    59  55  87 E8        29.91R
$$

MSZ040-058-211400-
CENTRAL MISSISSIPPI

CITY           SKY/WX    TMP DP  RH WIND       PRES   REMARKS
JACKSON INTL   CLOUDY    60  58  92 SW8       29.91R
JACKSON HAWKNS MOCLDY    59  57  94 S7        29.91
MADISON        CLOUDY   N/A N/A N/A SW7       29.92R
MERIDIAN KEY   CLOUDY    62  60  93 SE8       29.92F
MERIDIAN NAS   NOT AVBL
VICKSBURG VKS  FOG       59  59 100 VRB3      29.91R VSB 1
$$

MSZ059>079-211400-
SOUTH MISSISSIPPI

CITY           SKY/WX    TMP DP  RH WIND       PRES   REMARKS
BROOKHAVEN     PTSUNNY  N/A N/A N/A S6        29.95R FOG
COLUMBIA       CLOUDY    59 N/A N/A S6        29.98R
HATTIESBURG    LGT RAIN  60  59  96 SE7       29.96R
LAUREL         CLOUDY    59  59 100 SE5       29.94R
MCCOMB         LGT RAIN  59  57  93 S8        29.96R
NATCHEZ        CLOUDY    57  54  88 SW7       29.93F
PINE BELT      CLOUDY    59  55  88 S7        29.97R
$$

MSZ080>082-211400-
COASTAL MISSISSIPPI

CITY           SKY/WX    TMP DP  RH WIND       PRES   REMARKS
BAY ST LOUIS   MOCLDY    61  57  88 E5        29.93
BILOXI         RAIN      62  60  96 N3        29.94F FOG
PASCAGOULA     LGT RAIN  62  59  90 CALM      29.98R
GULFPORT       LGT RAIN  62  61  96 CALM      29.95F
$$

LAZ007>009-015>016-023>026-211400-
NORTHEAST LOUISIANA

CITY           SKY/WX    TMP DP  RH WIND       PRES   REMARKS
BASTROP        LGT RAIN  58  57  98 SW7       29.92S
TALLULAH/VBURG LGT RAIN  59  57  93 VRB5      29.93R FOG
VIDALIA        CLOUDY    58  57  97 SW7       29.93S
$$



USA.gov is the U.S. government's official web portal to all federal, state and local government web resources and services.